Total_Precipitation_Accumulation
0.14 0.09 0.20 0.15 0.10 0.12 0.15 0.17 0.20 0.21 0.22 0.21 0.21 0.22 0.18 0.13 0.12 0.12 0.20 0.26 0.27 0.30 0.32 0.33 0.40 0.41 0.41 0.43 0.43 0.39 0.38 0.37 0.39 0.39 0.39 0.43 0.50 0.68 0.83 0.80 0.79 0.56 0.48
0.09 0.07 0.19 0.16 0.10 0.12 0.14 0.18 0.19 0.19 0.19 0.18 0.20 0.20 0.17 0.13 0.12 0.11 0.16 0.24 0.29 0.29 0.26 0.28 0.30 0.31 0.32 0.32 0.30 0.28 0.29 0.33 0.37 0.40 0.40 0.38 0.49 0.72 0.84 0.79 0.83 0.51 0.42
0.08 0.08 0.15 0.19 0.14 0.11 0.13 0.17 0.21 0.21 0.17 0.16 0.17 0.17 0.16 0.15 0.16 0.15 0.16 0.24 0.32 0.30 0.25 0.25 0.25 0.25 0.25 0.23 0.21 0.21 0.24 0.32 0.38 0.47 0.57 0.50 0.40 0.73 0.86 0.77 0.56 0.38 0.41
0.09 0.09 0.11 0.16 0.16 0.14 0.14 0.16 0.19 0.20 0.19 0.20 0.21 0.18 0.17 0.17 0.18 0.17 0.17 0.20 0.25 0.24 0.22 0.17 0.18 0.19 0.17 0.14 0.14 0.18 0.24 0.33 0.42 0.61 0.87 0.75 0.41 0.62 0.75 0.63 0.48 0.39 0.40
0.12 0.10 0.14 0.17 0.20 0.19 0.16 0.18 0.20 0.21 0.22 0.23 0.21 0.20 0.19 0.19 0.19 0.17 0.16 0.18 0.19 0.17 0.16 0.16 0.17 0.16 0.13 0.10 0.11 0.17 0.24 0.33 0.42 0.66 0.77 0.77 0.70 0.63 0.61 0.55 0.50 0.52 0.47
0.18 0.14 0.19 0.22 0.21 0.24 0.21 0.20 0.22 0.22 0.22 0.21 0.19 0.18 0.18 0.20 0.21 0.19 0.17 0.19 0.21 0.21 0.18 0.18 0.19 0.18 0.14 0.11 0.13 0.17 0.22 0.33 0.42 0.49 0.52 0.57 0.61 0.61 0.59 0.62 0.64 0.61 0.54
0.35 0.27 0.28 0.31 0.29 0.25 0.21 0.21 0.21 0.21 0.23 0.22 0.19 0.19 0.20 0.21 0.21 0.19 0.17 0.16 0.17 0.20 0.21 0.20 0.20 0.17 0.18 0.18 0.17 0.19 0.26 0.38 0.45 0.46 0.40 0.62 0.64 0.47 0.61 0.79 0.92 0.82 0.66
0.48 0.43 0.37 0.35 0.32 0.29 0.24 0.24 0.25 0.23 0.23 0.24 0.23 0.21 0.20 0.19 0.19 0.19 0.19 0.16 0.14 0.14 0.17 0.20 0.23 0.20 0.18 0.23 0.22 0.22 0.28 0.35 0.36 0.39 0.36 0.50 0.46 0.43 0.61 0.84 0.99 0.95 0.81
0.59 0.55 0.47 0.41 0.35 0.34 0.31 0.30 0.30 0.29 0.28 0.26 0.24 0.23 0.21 0.19 0.18 0.19 0.20 0.19 0.16 0.15 0.15 0.17 0.19 0.18 0.17 0.21 0.27 0.30 0.35 0.45 0.47 0.50 0.45 0.59 0.52 0.58 0.76 0.93 1.06 1.04 0.99
0.86 0.66 0.57 0.55 0.50 0.45 0.41 0.40 0.40 0.35 0.34 0.33 0.29 0.29 0.28 0.28 0.25 0.27 0.26 0.25 0.25 0.23 0.20 0.19 0.21 0.21 0.21 0.22 0.26 0.40 0.53 0.49 0.38 0.48 0.64 0.57 0.56 0.79 1.03 1.12 1.23 1.24 1.19
1.14 0.93 0.77 0.70 0.65 0.59 0.54 0.52 0.55 0.52 0.50 0.47 0.45 0.43 0.41 0.40 0.44 0.47 0.42 0.46 0.43 0.42 0.43 0.42 0.43 0.42 0.40 0.32 0.37 0.58 0.62 0.41 0.49 0.69 0.76 0.60 0.73 1.05 1.29 1.37 1.38 1.40 1.36
1.32 1.06 0.99 0.91 0.81 0.72 0.60 0.68 0.81 0.75 0.72 0.67 0.73 0.69 0.66 0.72 0.69 0.54 0.61 0.78 0.92 0.96 0.93 1.00 1.11 0.90 0.71 0.72 1.18 1.21 0.53 0.43 0.68 0.81 0.86 0.77 0.99 1.37 1.56 1.65 1.62 1.54 1.48
1.60 1.31 1.20 1.11 1.01 0.97 0.97 0.90 0.93 0.91 0.96 0.92 0.98 1.04 1.05 0.95 0.80 0.76 0.89 1.12 1.31 1.36 1.32 1.63 1.68 1.22 1.29 1.58 1.70 1.43 0.80 0.75 0.95 0.97 1.16 1.22 1.27 1.69 2.09 2.08 2.01 1.83 1.68
1.90 1.61 1.43 1.34 1.30 1.25 1.18 1.13 1.07 1.10 1.15 1.18 1.28 1.31 1.41 1.46 1.35 1.32 1.40 1.48 1.65 1.75 1.95 2.07 2.18 1.90 1.89 1.79 1.66 1.50 1.31 1.36 1.30 1.53 1.88 1.74 1.51 1.76 2.43 2.57 2.45 2.23 1.87
2.00 1.76 1.73 1.54 1.44 1.45 1.51 1.55 1.45 1.51 1.50 1.49 1.60 1.69 1.77 1.96 1.94 1.89 1.79 1.80 1.75 1.94 2.13 2.42 2.35 2.59 2.53 2.25 1.90 1.71 1.70 1.68 1.60 1.81 2.08 2.16 2.00 2.02 2.67 3.08 2.96 2.66 2.26
1.95 1.84 1.81 1.72 1.77 1.87 1.87 1.87 1.95 1.98 1.96 1.92 1.90 1.95 2.00 2.19 2.41 2.33 2.11 2.08 1.96 2.03 2.33 2.59 2.61 2.98 2.82 2.66 2.18 2.02 1.87 1.78 1.74 1.92 2.13 2.35 2.32 2.27 2.56 3.00 3.25 3.15 2.76
1.74 1.86 2.02 2.16 2.30 2.44 2.49 2.48 2.43 2.45 2.35 2.32 2.43 2.48 2.52 2.51 2.55 2.41 2.25 2.16 2.27 2.40 2.59 2.63 2.73 3.03 2.76 2.65 2.45 2.27 2.06 1.87 1.77 1.96 2.22 2.52 2.34 2.26 2.54 2.90 3.26 3.19 3.00
1.70 1.85 2.11 2.26 2.54 2.74 2.83 2.93 2.93 2.87 2.73 2.77 2.75 2.76 2.77 2.67 2.57 2.61 2.36 2.17 2.41 2.56 2.73 2.88 2.85 2.91 2.90 2.85 2.68 2.33 2.17 2.05 1.83 1.90 2.02 2.17 2.32 1.96 2.32 2.85 3.02 2.89 2.90
1.99 2.25 2.59 2.68 2.65 2.74 2.94 3.08 2.94 2.88 2.77 2.71 2.62 2.60 2.55 2.49 2.48 2.73 2.52 2.49 2.63 2.82 2.73 2.55 2.89 3.01 2.94 2.90 2.60 2.42 2.06 1.91 1.85 1.77 1.85 1.94 2.15 2.09 2.09 2.27 2.70 2.63 2.83
2.34 2.67 2.79 2.86 3.08 3.37 3.58 3.49 3.22 2.88 2.65 2.55 2.44 2.32 2.32 2.41 2.44 2.69 2.47 2.54 2.73 2.89 2.93 2.93 2.99 2.97 2.85 2.90 2.56 2.31 1.99 1.68 1.63 1.58 1.51 1.66 1.77 1.60 1.68 1.85 2.18 1.96 2.19
2.37 2.57 2.81 3.14 3.52 3.63 3.53 3.49 3.42 3.08 2.77 2.42 2.19 2.18 2.27 2.24 2.35 2.61 2.34 2.65 2.78 2.79 2.92 2.97 3.09 2.97 2.81 2.98 2.83 2.32 1.84 1.53 1.37 1.25 1.28 1.39 1.37 1.46 1.69 1.97 2.22 2.24 2.03
2.32 2.56 2.89 3.18 3.52 3.48 3.58 3.74 3.62 3.35 2.77 2.40 2.19 2.16 2.20 2.21 2.25 2.39 2.65 2.70 2.77 2.81 2.84 2.80 2.83 2.64 2.45 2.80 2.83 2.60 2.00 1.62 1.28 1.10 1.27 1.26 1.36 1.62 1.65 1.70 2.00 2.30 2.20
2.43 2.79 3.05 3.23 3.31 3.34 3.47 3.53 3.21 2.97 2.55 2.42 2.40 2.29 2.22 2.31 2.35 2.46 2.62 2.71 2.63 2.54 2.59 2.68 2.58 2.44 2.27 2.40 2.67 2.68 2.19 1.70 1.35 1.11 1.15 1.23 1.54 1.71 1.64 1.62 1.63 1.73 1.80
2.44 2.81 3.18 3.16 3.13 3.09 3.21 3.28 3.08 2.79 2.52 2.41 2.41 2.19 2.05 2.03 2.08 2.18 2.25 2.41 2.47 2.45 2.41 2.37 2.35 2.36 2.29 2.16 2.39 2.47 2.32 2.05 1.78 1.30 1.07 1.13 1.40 1.52 1.47 1.37 1.43 1.60 1.71
2.13 2.42 2.73 2.94 2.98 2.90 2.89 2.88 2.83 2.62 2.37 2.21 2.12 1.99 1.95 1.98 1.89 1.88 1.98 2.17 2.22 2.14 2.13 2.26 2.42 2.40 2.24 2.09 2.18 2.28 2.41 2.34 2.04 1.68 1.26 1.18 1.20 1.14 1.26 1.28 1.30 1.40 1.61
1.91 2.16 2.35 2.50 2.56 2.53 2.47 2.47 2.48 2.40 2.32 2.15 1.98 1.97 2.00 1.95 1.81 1.75 1.77 1.87 1.94 1.93 1.90 1.93 2.04 2.08 2.06 2.14 2.16 2.16 2.26 2.25 2.14 2.02 1.62 1.39 1.27 1.00 1.06 1.13 1.21 1.27 1.36